SCP
0 0 0 0 0 0 0 0 0 0 0 0 0 0 0 0 0 0 0 0 0 0 0 0 0 0 0 0 0 0 0 0 0 0 0 0 0 0 0 0 0 0 0 0
0 0 0 0 0 0 0 0 0 0 0 0 0 0 0 0 0 0 0 0 0 0 0 0 0 0 0 0 0 0 0 0 0 0 0 0 0 0 0 0 0 0 0 0
0 0 0 0 0 0 0 0 0 0 0 0 0 0 0 0 0 0 0 0 0 0 0 0 0 0 0 0 0 0 0 0 0 0 0 0 0 0 0 0 0 0 0 0
0 0 0 0 0 0 0 0 0 0 0 0 0 0 0 0 0 0 0 0 0 0 0 0 0 0 0 0 0 0 0 0 0 0 0 0 0 0 0 0 0 0 0 0
0 0 0 0 0 0 0 0 0 0 0 0 0 0 0 0 0 0 0 0 0 0 0 0 0 0 0 0 0 0 0 0 0 0 0 0 0 0 0 0 0 0 0 0
0 0 0 0 0 0 0 0 0 0 0 0 0 0 0 0 0 0 0 0 0 0 0 0 0 0 0 0 0 0 0 0 0 0 0 0 0 0 0 0 0 0 0 0
0 0 0 0 0 0 0 0 0 0 0 0 0 0 0 0 0 0 0 0 0 0 0 0 0 0 0 0 0 0 0 0 0 0 0 0 0 0 0 0 0 0 0 0
0 0 0 0 0 0 0 0 0 0 0 0 0 0 0 0 0 0 0 0 0 0 0 0 0 0 0 0 0 0 0 0 0 0 0 0 0 0 0 0 0 0 0 0
0 0 0 0 0 0 0 0 0 0 0 0 0 0 0 0 0 0 0 0 0 0 0 0 0 0 0 0 0 0 0 0 0 0 0 0 0 0 0 0 0 0 0 0
0 0 0 0 0 0 0 0 0 0 0 0 0 0 0 0 0 0 0 0 0 0 0 0 0 0 0 0 0 0 0 0 0 0 0 0 0 0 0 0 0 0 0 0
0 0 0 0 0 0 0 0 0 0 0 0 0 0 0 0 0 0 0 0 0 0 0 0 0 0 0 0 0 0 0 0 0 0 0 0 0 0 0 0 0 0 0 0
0 0 0 0 0 0 0 0 0 0 0 0 0 0 0 0 0 0 0 0 0 0 0 0 0 0 0 0 0 0 0 0 0 0 0 0 0 0 0 0 0 0 0 0
0 0 0 0 0 0 0 0 0 0 0 0 0 0 0 0 0 0 0 0 0 0 0 0 0 0 0 0 0 0 0 0 0 0 0 0 0 0 0 0 0 0 0 0
0 0 0 0 0 0 0 0 0 0 0 0 0 0 0 0 0 0 0 0 0 0 0 0 0 0 0 0 0 0 0 0 0 0 0 0 0 0 0 0 0 0 0 0
0 0 0 0 0 0 0 0 0 0 0 0 0 0 0 0 0 0 0 0 0 0 0 0 0 0 0 0 0 0 0 0 0 0 0 0 0 0 0 0 0 0 0 0
0 0 0 0 0 0 0 0 0 0 0 0 0 0 0 0 0 0 0 0 0 0 0 0 0 0 0 0 0 0 0 0 0 0 0 0 0 0 0 0 0 0 0 0
0 0 0 0 0 0 0 0 0 0 0 0 0 0 0 0 0 0 0 0 0 0 0 0 0 0 0 0 0 0 0 0 0 0 0 0 0 0 0 0 0 0 0 0
0 0 0 0 0 0 0 0 0 0 0 0 0 0 0 0 0 0 0 0 0 0 0 0 0 0 0 0 0 0 0 0 0 0 0 0 0 0 0 0 0 0 0 0
0 0 0 0 0 0 0 0 0 0 0 0 0 0 0 0 0 0 0 0 0 0 0 0 0 0 0 0 0 0 0 0 0 0 0 0 0 0 0 0 0 0 0 0
0 0 0 0 0 0 0 0 0 0 0 0 0 0 0 0 0 0 0 0 0 0 0 0 0 0 0 0 0 0 0 0 0 0 0 0 0 0 0 0 0 0 0 0
0 0 0 0 0 0 0 0 0 0 0 0 0 0 0 0 0 0 0 0 0 0 0 0 0 0 0 0 0 0 0 0 0 0 0 0 0 0 0 0 0 0 0 0
0 0 0 0 0 0 0 0 0 0 0 0 0 0 0 0 0 0 0 0 0 0 0 0 0 0 0 0 0 0 0 0 0 0 0 0 0 0 0 0 0 0 0 0
0 0 0 0 0 0 0 0 0 0 0 0 0 0 0 0 0 0 0 0 0 0 0 0 0 0 0 0 0 0 0 0 0 0 0 0 0 0 0 0 0 0 0 0
0 0 0 0 0 0 0 0 0 0 0 0 0 0 0 0 0 0 0 0 0 0 0 0 0 0 0 0 0 0 0 0 0 0 0 0 0 0 0 0 0 0 0 0
0 0 0 0 0 0 0 0 0 0 0 0 0 0 0 0 0 0 0 0 0 0 0 0 0 0 0 0 0 0 0 0 0 0 0 0 0 0 0 0 0 0 0 0
0 0 0 0 0 0 0 0 0 0 0 0 0 0 0 0 0 0 0 0 0 0 0 0 0 0 0 0 0 0 0 0 0 0 0 0 0 0 0 0 0 0 0 0
0 0 0 0 0 0 0 0 0 0 0 0 0 0 0 0 0 0 0 0 0 0 0 0 0 0 0 0 0 0 0 0 0 0 0 0 0 0 0 0 0 0 0 0
Wind_Speed
6 6 6 7 8 7 6 7 7 7 7 7 7 7 5 2 1 1 1 2 2 2 1 2 2 2 2 2 2 2 2 3 2 2 2 2 2 2 1 1 1 2 2 3
6 5 4 6 8 7 6 7 7 6 5 7 7 6 4 2 1 0 1 1 1 1 1 1 2 2 2 2 2 3 3 2 2 3 3 2 2 2 1 1 1 2 2 3
5 5 5 2 6 7 6 6 7 7 7 7 7 7 4 2 1 0 0 1 1 1 1 1 1 2 2 2 3 3 3 2 3 3 3 2 2 2 2 1 1 2 3 3
5 5 3 3 6 7 6 6 6 7 7 8 8 6 3 2 2 1 1 0 1 1 1 1 2 2 3 3 3 3 3 3 2 3 2 2 2 2 1 1 2 2 3 3
4 4 3 2 7 9 6 5 8 8 8 8 7 4 2 5 5 3 2 0 2 2 2 2 2 3 3 3 3 3 3 2 2 2 2 2 1 1 1 2 2 2 2 3
4 4 2 5 10 10 6 1 9 10 8 7 6 5 4 5 5 4 2 1 1 3 3 3 3 3 4 3 3 3 3 3 2 2 2 2 1 1 2 2 3 3 3 3
4 3 1 8 11 8 4 7 10 10 8 7 7 6 4 4 4 3 1 1 2 3 3 2 3 4 4 4 3 2 2 2 2 2 2 2 2 2 2 3 3 3 3 3
4 3 3 11 9 8 8 8 8 8 7 6 5 4 3 3 2 2 1 1 2 3 3 3 3 3 4 3 2 3 2 2 2 2 2 1 1 2 2 3 3 3 3 3
4 4 6 8 8 7 7 8 8 7 6 5 4 3 3 2 2 1 1 1 2 3 4 3 3 3 3 3 3 3 3 2 2 2 1 1 2 2 2 2 3 2 2 3
4 4 7 7 7 7 7 8 8 7 6 4 4 2 2 1 1 1 1 2 2 3 4 4 3 3 2 3 3 3 3 2 2 2 2 1 1 1 1 2 2 3 3 4
5 6 6 6 8 9 8 8 7 6 5 4 3 2 1 1 0 1 2 2 2 3 4 4 4 3 3 3 3 3 2 2 2 2 1 1 1 1 2 2 3 4 4 4
5 6 8 9 10 10 9 7 6 5 5 4 3 1 1 0 1 1 2 2 3 3 3 4 4 3 3 3 3 3 2 2 2 1 1 1 1 1 1 1 0 1 3 4
8 9 9 10 10 8 7 7 6 5 4 3 2 1 1 1 1 2 2 3 3 3 3 3 3 3 3 3 3 2 2 1 1 1 1 1 1 1 0 2 3 3 2 2
7 7 8 8 8 7 6 5 4 3 2 2 1 1 2 2 2 2 2 2 2 3 3 3 3 3 3 3 3 3 2 2 2 1 1 1 1 1 1 2 1 1 2 3
7 7 7 8 7 6 4 3 2 1 2 2 1 1 1 1 1 2 2 2 2 2 3 3 3 2 2 3 3 2 2 1 1 1 1 1 1 1 1 2 3 3 3 3
8 7 6 6 6 5 4 2 2 1 1 1 1 1 1 1 1 2 2 2 2 2 2 2 2 2 2 2 3 3 3 1 1 1 1 0 0 1 2 2 3 3 3 4
7 7 5 5 5 5 4 3 2 1 0 0 0 1 1 1 2 2 2 2 2 1 1 1 1 2 2 2 2 2 2 4 4 2 0 1 1 1 2 2 3 3 3 4
6 6 5 6 5 4 3 2 2 1 1 1 1 1 1 2 2 2 2 2 2 2 2 1 1 1 2 2 1 1 1 2 2 1 1 1 1 1 2 2 3 4 3 2
6 6 5 5 5 4 3 2 2 1 1 2 2 2 2 2 2 2 3 3 3 2 2 2 1 2 2 2 2 2 1 1 2 2 1 2 0 1 2 2 3 3 4 4
6 6 5 5 4 3 3 2 2 2 2 2 2 2 2 2 2 3 3 2 2 1 2 2 3 2 2 3 3 2 2 1 1 1 1 0 1 1 2 2 3 3 4 4
7 6 5 4 4 3 3 2 2 2 2 3 3 3 3 3 3 3 3 3 2 2 2 2 3 2 3 2 4 2 2 1 1 1 1 0 1 2 2 3 3 3 4 4
7 6 6 4 3 3 2 3 3 3 3 3 3 3 3 3 3 3 3 2 2 2 3 3 3 2 1 2 3 2 2 1 1 1 1 0 1 1 2 2 3 3 3 4
7 6 6 5 4 3 3 3 3 3 3 3 4 4 4 3 3 3 3 3 3 4 4 2 2 4 3 4 3 2 1 1 1 1 1 1 0 1 1 2 2 3 3 3
7 6 6 5 3 3 3 3 3 3 4 4 4 4 4 3 3 3 2 3 3 4 3 3 5 5 5 4 3 3 2 2 2 1 1 1 0 1 1 2 2 3 3 4
7 7 5 4 4 3 3 3 3 4 4 3 3 4 4 3 3 3 2 4 5 5 4 5 7 6 6 4 4 3 2 1 1 1 1 1 1 1 1 2 3 3 3 3
7 6 5 5 4 3 3 3 3 3 4 3 3 3 3 3 3 3 3 5 6 5 4 4 6 7 5 4 4 3 3 3 3 2 1 1 1 2 2 2 2 2 2 3
7 5 4 4 4 4 4 4 4 4 4 4 3 3 3 4 4 4 4 4 5 5 4 4 4 4 4 4 3 3 3 3 2 2 2 2 1 1 1 1 1 1 2 2
Wind_Direction
300 303 310 319 321 323 317 318 313 321 334 3 0 349 345 353 7 97 114 134 135 138 136 142 144 143 140 142 144 150 154 154 152 159 163 169 175 172 165 207 247 266 274 281
291 297 316 325 330 327 329 328 324 337 357 14 360 352 2 8 343 74 113 106 106 109 131 159 164 159 153 147 147 157 161 162 154 153 156 169 179 177 186 228 265 275 285 291
299 315 294 311 351 344 346 355 340 343 358 356 352 350 354 358 359 7 29 176 196 199 165 165 168 170 166 161 159 162 165 163 161 159 156 172 192 186 194 227 257 278 283 290
299 301 287 47 14 351 341 6 11 9 2 353 346 338 352 20 359 338 346 234 192 186 171 169 159 167 175 166 165 167 168 165 163 163 160 177 203 199 225 254 264 274 287 294
293 287 289 19 8 348 329 359 28 12 356 352 348 338 41 28 355 349 357 302 174 165 162 157 158 165 164 165 169 169 166 166 173 180 184 190 199 216 242 262 274 278 282 286
296 296 325 26 360 341 299 20 26 359 344 341 330 329 6 0 341 346 8 45 138 153 152 150 160 160 163 171 175 174 173 174 181 188 200 205 207 250 261 266 274 286 296 294
299 293 6 14 349 330 327 0 345 336 330 322 331 347 343 332 335 349 20 82 144 146 145 151 154 159 163 162 168 170 170 164 167 182 209 222 232 251 267 279 294 299 301 295
301 291 9 3 352 358 344 331 329 327 326 328 341 348 345 351 359 4 35 107 135 140 138 139 153 161 158 152 160 167 169 169 177 197 222 207 225 256 275 285 274 275 281 287
318 330 344 340 342 337 327 323 329 327 323 319 322 335 345 358 8 18 64 119 132 141 135 138 154 164 152 143 156 159 162 172 179 184 214 235 235 247 260 266 280 290 299 318
290 306 333 334 344 341 337 333 329 323 317 312 312 322 342 357 6 53 97 128 143 152 145 144 152 160 158 153 156 159 165 171 173 180 200 203 250 264 296 308 312 321 332 337
281 312 324 334 340 338 334 330 330 327 326 323 313 311 330 331 352 103 116 128 139 143 143 143 147 153 154 154 159 167 171 170 184 183 184 216 224 334 320 5 355 325 337 337
302 322 316 314 321 324 320 321 322 323 331 333 337 343 24 47 79 110 127 133 134 136 139 136 138 146 150 156 165 173 176 181 194 179 173 233 206 140 103 243 154 282 305 310
285 300 303 301 308 316 314 317 319 323 327 332 354 22 81 88 99 111 124 136 141 144 141 139 141 147 151 160 165 174 189 198 231 232 237 277 305 319 84 156 185 190 212 242
296 300 299 305 313 319 318 317 321 326 337 5 29 64 97 104 115 116 117 131 147 155 151 148 148 144 151 163 176 189 205 175 233 237 277 307 323 324 340 345 342 7 167 169
301 298 294 301 308 318 317 313 319 343 22 38 50 77 96 107 128 124 125 134 150 162 156 155 154 151 165 165 173 190 210 177 213 275 270 295 318 333 0 360 350 352 7 78
301 299 297 299 306 311 308 307 316 346 26 31 46 79 103 126 132 125 132 141 157 158 147 155 159 165 170 164 174 174 159 100 299 263 208 166 21 5 10 1 351 355 2 14
295 300 304 302 302 304 306 303 298 273 255 204 85 118 137 139 134 132 139 139 137 138 151 156 154 163 160 164 197 180 150 139 175 222 143 52 36 21 12 352 353 358 12 40
290 291 293 293 292 293 293 293 290 278 248 191 161 159 169 171 156 148 155 151 146 135 130 132 129 156 153 155 190 227 149 131 139 116 91 66 24 15 356 349 357 1 3 39
305 298 293 292 288 283 281 281 273 266 241 192 182 189 190 180 169 169 172 179 177 163 145 128 121 198 161 149 214 190 173 146 135 119 113 120 203 1 354 355 3 6 4 5
308 300 291 287 283 278 276 273 264 244 226 203 199 200 190 178 180 180 181 194 197 131 127 145 186 189 183 165 236 211 170 167 148 139 146 124 28 358 358 3 9 11 5 3
312 308 300 291 285 277 271 259 245 229 221 217 213 209 198 189 191 191 206 198 167 150 155 174 209 191 187 171 208 220 179 161 159 158 149 76 18 3 9 9 8 5 1 356
308 307 302 295 284 277 271 255 240 226 222 225 218 208 198 195 197 203 220 230 167 166 210 198 194 143 141 227 207 200 174 166 182 167 124 57 14 7 8 3 358 356 355 357
301 301 296 288 279 271 265 251 236 228 228 225 219 212 208 212 215 216 209 197 190 184 220 206 125 133 187 224 220 207 193 197 209 199 152 128 21 350 348 346 345 346 351 355
297 294 286 281 271 254 253 251 240 234 235 235 221 210 208 204 208 226 206 154 167 174 204 144 148 172 218 223 214 209 197 199 211 216 201 159 154 321 336 329 329 339 352 357
294 289 278 267 251 244 246 245 231 227 228 225 215 206 208 205 196 198 191 166 162 186 191 162 174 194 219 223 212 204 199 195 240 275 209 267 283 294 314 322 333 343 351 357
289 281 275 268 269 260 246 239 233 229 226 218 208 204 198 189 185 179 183 181 179 197 208 180 178 196 215 214 203 199 196 177 186 213 230 247 274 297 313 323 336 342 352 5
276 269 259 254 250 251 249 243 240 235 227 222 215 215 207 195 192 190 191 192 188 192 198 199 195 197 200 197 191 191 195 196 203 213 220 238 258 272 290 309 330 346 352 21